[[{"header":{"parameterUnit":"m.s-1","parameterCategory":2,"la1":30.2991,"la2":30.254,"lo1":-89.0895,"lo2":-89.0444,"dy":0.0017,"dx":0.0017,"nx":28,"ny":28,"refTime":"2023-07-22T03:00:00:Z","depth":"0","parameterNumber":2,"parameterNumberName":"U-component_of_CURRENTS"},"data":[0,0,0,0,0,0,0,0,0,0,0,0,0,0,0,0,0,0,0,0,0,0,0,0,0,0,0,0,0,0,0,0,0,0,0,0,0,0,0,0,0,0,0,0,0,0,0,0,0,0,0,0,0,0,0,0,0,0,0.2499,0.2501,0,0.2547,0.2547,0.2546,0.2541,0.2541,0.2541,0.2541,0.2377,0.2373,0.2369,0,0,0,0,0,0,0,0,0,0,0,0,0,0.2433,0.2433,0.2499,0.2501,0.2502,0.2547,0.2547,0.2546,0.2541,0.2541,0.2541,0.2541,0.2379,0.2374,0.2369,0,0,0,0,0,0,0,0,0,0,0,0,0,0.2462,0.2434,0.2499,0.251,0.2512,0.2547,0.2547,0.2546,0.2541,0.2541,0.2541,0.2541,0.2381,0.2374,0.2368,0.2329,0,0,0.2348,0.2345,0,0,0,0,0,0,0,0,0.246,0.2463,0.2507,0.251,0.2512,0.2545,0.2464,0.2466,0.2541,0.2522,0.2541,0.2541,0.2419,0.241,0.241,0.2321,0.2314,0.2348,0.2344,0.2341,0.2339,0,0,0,0,0,0,0,0.2458,0.2461,0.251,0.2509,0.2512,0.2524,0.2526,0.2465,0.246,0.2523,0.2525,0.2543,0.2418,0.2417,0.2406,0.2312,0.2348,0.2342,0.2338,0.2335,0.2316,0.2319,0,0,0,0,0,0,0.2467,0.2459,0.2509,0.2512,0.2494,0.2525,0.2528,0.2528,0.2465,0.246,0.2543,0.2543,0.2428,0.2413,0.24,0.2433,0.2341,0.2335,0.2331,0.2312,0.2316,0.232,0,0,0,0,0,0,0.2465,0.247,0.2507,0.2494,0.2501,0.2527,0.2527,0.2529,0.2534,0.2484,0.2473,0.2548,0.2427,0.2409,0.2371,0.2423,0.2332,0.2326,0.2308,0.2314,0.2318,0.2446,0,0,0,0,0,0,0.2462,0.2468,0.2476,0.2494,0.2502,0.2504,0.2528,0.253,0.2549,0.2549,0.2484,0.2469,0.2426,0.2382,0.2365,0.2413,0.2321,0.2304,0.2311,0.2317,0.2437,0.2454,0.2469,0,0,0,0,0,0.2459,0.2459,0.2475,0.2482,0.2509,0.2504,0.2506,0.2522,0.255,0.253,0.2526,0.2471,0.2412,0.2377,0.2357,0.2405,0.2301,0.2309,0.2316,0.243,0.2451,0.2469,0,0,0,0,0,0,0.2444,0.246,0.2477,0.2487,0.249,0.2506,0.2495,0.2528,0.2514,0.251,0.248,0.2463,0.2464,0.2416,0.238,0.2427,0.2361,0.2364,0.2454,0.2473,0.2489,0.247,0.2316,0,0,0,0,0,0.2446,0.2444,0.2462,0.2471,0.2458,0.2483,0.2491,0.2502,0.25,0.2496,0.2483,0.2475,0.248,0.2459,0.2435,0.2426,0.241,0.2459,0.2475,0.2489,0.2466,0.2515,0.2532,0.2345,0.2345,0.2345,0,0,0.2452,0.246,0.2464,0.2468,0.2461,0.2462,0.2482,0.2475,0.2512,0.2473,0.2504,0.2511,0.2492,0.2511,0.2508,0.2471,0.2544,0.2498,0.251,0.2479,0.2524,0.2542,0.2558,0.235,0.2349,0.2348,0,0,0.2435,0.2446,0.2423,0.2423,0.2421,0.2442,0.2445,0.2465,0.2491,0.2516,0.2543,0.2583,0.2555,0.2588,0.2595,0.2677,0.2629,0.2686,0.2737,0.2787,0.2801,0.2814,0.2852,0.2867,0.2691,0.2692,0.2692,0,0.2431,0.2425,0.2418,0.2396,0.2414,0.2437,0.2432,0.2463,0.2496,0.2524,0.2527,0.2606,0.26,0.2667,0.2726,0.2711,0.2721,0.2663,0.2805,0.2817,0.2828,0.2864,0.2878,0.2699,0.2698,0.2697,0.2697,0,0.2394,0.2398,0.2375,0.237,0.2386,0.2375,0.2422,0.2451,0.2508,0.256,0.2634,0.2668,0.2711,0.276,0.2764,0.2866,0.2845,0.2823,0.275,0.2854,0.2886,0.2899,0.2709,0.2706,0.2704,0.2702,0,0,0.2335,0.2347,0.2333,0.2347,0.2373,0.2377,0.2433,0.2485,0.2532,0.2601,0.2677,0.2769,0.2805,0.2819,0.2865,0.293,0.3058,0.2917,0.2917,0.2942,0.3164,0.3136,0.3147,0.3061,0.3063,0.3065,0.3168,0,0.2295,0.2266,0.2299,0.2315,0.2308,0.2367,0.243,0.2494,0.2554,0.2629,0.2715,0.2783,0.2825,0.2866,0.2948,0.3026,0.3092,0.3031,0.3067,0.3068,0.302,0.3161,0.3076,0.3159,0.318,0.3182,0.3183,0,0.2233,0.2233,0.2225,0.2304,0.2303,0.2336,0.2421,0.2478,0.2584,0.2634,0.2718,0.2777,0.2914,0.2919,0.3094,0.3053,0.3113,0.3169,0.3173,0.3097,0.3064,0.3052,0.318,0.3034,0.3203,0.3201,0.32,0,0.2179,0.2189,0.2192,0.2207,0.2287,0.2315,0.2371,0.2468,0.2517,0.2625,0.2666,0.2813,0.2885,0.3,0.3131,0.3119,0.3296,0.3284,0.3308,0.3306,0.3211,0.3196,0.318,0.338,0.3379,0.3379,0.3379,0,0.2132,0.2133,0.216,0.2162,0.2184,0.2269,0.2314,0.2381,0.2484,0.2535,0.2659,0.2724,0.2908,0.3028,0.3139,0.3274,0.3301,0.3335,0.3341,0.3258,0.3247,0.3091,0.302,0.3383,0.3382,0.3381,0.3381,0,0.207,0.2089,0.2088,0.2141,0.2154,0.2164,0.2251,0.2284,0.2395,0.246,0.2496,0.2676,0.2842,0.3006,0.3197,0.327,0.3313,0.3424,0.3312,0.3304,0.3188,0.3128,0.3059,0.2998,0.3486,0.3486,0.3486,0,0.2036,0.2019,0.2029,0.2014,0.2028,0.2057,0.2083,0.2209,0.2252,0.2422,0.2453,0.263,0.2753,0.3034,0.321,0.3397,0.3286,0.3388,0.3353,0.3185,0.3124,0.3021,0.2968,0.3296,0.3295,0.3294,0.3293,0,0.1949,0.1939,0.1926,0.1908,0.1906,0.1921,0.1975,0.1997,0.215,0.2236,0.2372,0.2485,0.2766,0.2941,0.3174,0.3287,0.3217,0.3368,0.3227,0.3006,0.2858,0.2799,0.3213,0.3282,0.3283,0.3284,0.3284,0.3285,0.1848,0.1811,0.1791,0.1775,0.1774,0.1782,0.1781,0.187,0.1946,0.2065,0.2231,0.2367,0.2624,0.297,0.3066,0.313,0.3146,0.3085,0.3042,0.2965,0.2849,0.3235,0.3282,0.3283,0.3284,0.3284,0.3285,0,0.1692,0.1683,0.1667,0.1641,0.1615,0.167,0.1704,0.171,0.1769,0.1912,0.2045,0.2238,0.2429,0.2635,0.2834,0.2797,0.2753,0.2729,0.2546,0.2526,0.2901,0.2831,0.2739,0.274,0.274,0.274,0.274,0.274,0.1601,0.1543,0.1559,0.1487,0.1481,0.144,0.1442,0.1481,0.1568,0.1663,0.1763,0.1911,0.2168,0.2371,0.2411,0.2411,0.2246,0.2207,0.2184,0.2402,0.243,0.2457,0.2373,0.2186,0.2186,0.1752,0.1748,0.1745]},{"header":{"parameterUnit":"m.s-1","parameterCategory":2,"la1":30.2991,"la2":30.254,"lo1":-89.0895,"lo2":-89.0444,"dy":0.0017,"dx":0.0017,"nx":28,"ny":28,"refTime":"2023-07-22T03:00:00:Z","depth":"0","parameterNumber":3,"parameterNumberName":"V-component_of_CURRENTS"},"data":[0,0,0,0,0,0,0,0,0,0,0,0,0,0,0,0,0,0,0,0,0,0,0,0,0,0,0,0,0,0,0,0,0,0,0,0,0,0,0,0,0,0,0,0,0,0,0,0,0,0,0,0,0,0,0,0,0,0,-0.0944,-0.0944,0,-0.0962,-0.0962,-0.0962,-0.0966,-0.0966,-0.0966,-0.0966,-0.0904,-0.0903,-0.0901,0,0,0,0,0,0,0,0,0,0,0,0,0,-0.0938,-0.0938,-0.0944,-0.0944,-0.0945,-0.0962,-0.0962,-0.0962,-0.0966,-0.0966,-0.0966,-0.0966,-0.0905,-0.0903,-0.0901,0,0,0,0,0,0,0,0,0,0,0,0,0,-0.0946,-0.0938,-0.0944,-0.095,-0.095,-0.0962,-0.0962,-0.0962,-0.0966,-0.0966,-0.0966,-0.0966,-0.0905,-0.0903,-0.0901,-0.0886,0,0,-0.0893,-0.0892,0,0,0,0,0,0,0,0,-0.0945,-0.0946,-0.0949,-0.0949,-0.095,-0.0963,-0.0937,-0.0933,-0.0966,-0.0959,-0.0966,-0.0966,-0.0917,-0.0914,-0.0917,-0.0884,-0.0881,-0.0893,-0.0892,-0.0891,-0.089,0,0,0,0,0,0,0,-0.0945,-0.0945,-0.095,-0.0949,-0.095,-0.096,-0.096,-0.0937,-0.0936,-0.096,-0.096,-0.0964,-0.0917,-0.0919,-0.0915,-0.088,-0.0893,-0.0891,-0.0889,-0.0889,-0.0853,-0.0853,0,0,0,0,0,0,-0.0943,-0.0944,-0.095,-0.0951,-0.0949,-0.096,-0.096,-0.0958,-0.0938,-0.0936,-0.0964,-0.0964,-0.0923,-0.0918,-0.0913,-0.0881,-0.0891,-0.0888,-0.0887,-0.0852,-0.0853,-0.0853,0,0,0,0,0,0,-0.0943,-0.0943,-0.0949,-0.0949,-0.0951,-0.096,-0.0957,-0.0958,-0.0961,-0.0942,-0.0938,-0.0966,-0.0923,-0.0916,-0.0901,-0.0879,-0.0887,-0.0885,-0.0852,-0.0852,-0.0853,-0.0826,0,0,0,0,0,0,-0.0943,-0.0943,-0.0949,-0.0949,-0.0951,-0.0943,-0.0957,-0.0959,-0.0964,-0.0964,-0.0942,-0.0937,-0.0923,-0.0905,-0.0899,-0.0876,-0.0883,-0.0851,-0.0852,-0.0853,-0.0827,-0.0826,-0.0826,0,0,0,0,0,-0.0942,-0.0944,-0.0949,-0.095,-0.0955,-0.0942,-0.0943,-0.095,-0.0964,-0.0955,-0.0957,-0.0937,-0.0907,-0.0904,-0.0896,-0.0872,-0.085,-0.0852,-0.0853,-0.0827,-0.0826,-0.0826,0,0,0,0,0,0,-0.0956,-0.0945,-0.095,-0.0953,-0.0944,-0.0943,-0.0943,-0.0951,-0.0948,-0.0948,-0.094,-0.0934,-0.0916,-0.0906,-0.0903,-0.087,-0.0876,-0.0876,-0.0859,-0.0859,-0.0858,-0.0824,-0.0881,0,0,0,0,0,-0.096,-0.0951,-0.0945,-0.0947,-0.0941,-0.0944,-0.0946,-0.0942,-0.0939,-0.0938,-0.0931,-0.0924,-0.0916,-0.0898,-0.089,-0.0862,-0.0857,-0.0846,-0.0846,-0.0845,-0.0816,-0.0823,-0.0819,-0.0857,-0.0857,-0.0857,0,0,-0.0969,-0.0962,-0.096,-0.0949,-0.0945,-0.0926,-0.0943,-0.0932,-0.0916,-0.0929,-0.0913,-0.0922,-0.0914,-0.0892,-0.0881,-0.0875,-0.0834,-0.0847,-0.0846,-0.0816,-0.0823,-0.0819,-0.0816,-0.0858,-0.0858,-0.0858,0,0,-0.0961,-0.097,-0.0949,-0.0935,-0.0919,-0.0918,-0.0913,-0.0906,-0.0901,-0.089,-0.0903,-0.09,-0.0885,-0.0871,-0.0864,-0.0855,-0.0842,-0.0859,-0.0808,-0.0815,-0.0811,-0.0808,-0.0801,-0.0797,-0.0846,-0.0846,-0.0846,0,-0.0961,-0.0943,-0.0943,-0.0913,-0.0904,-0.0911,-0.0883,-0.0877,-0.087,-0.0854,-0.0879,-0.087,-0.087,-0.0834,-0.0835,-0.0848,-0.0849,-0.0807,-0.0812,-0.0808,-0.0805,-0.0799,-0.0795,-0.0844,-0.0845,-0.0845,-0.0845,0,-0.0929,-0.0916,-0.0902,-0.0866,-0.0859,-0.0834,-0.0822,-0.0809,-0.0819,-0.0811,-0.0791,-0.0808,-0.0797,-0.0805,-0.0813,-0.0784,-0.0792,-0.082,-0.0806,-0.0799,-0.0794,-0.079,-0.0843,-0.0843,-0.0844,-0.0844,0,0,-0.0891,-0.0878,-0.0863,-0.0845,-0.0827,-0.0806,-0.0783,-0.0749,-0.0717,-0.0727,-0.0696,-0.0701,-0.0715,-0.0709,-0.0726,-0.0723,-0.0715,-0.0752,-0.0753,-0.0731,-0.0719,-0.0701,-0.0695,-0.0748,-0.0747,-0.0747,-0.0726,0,-0.0849,-0.0793,-0.0802,-0.0756,-0.0728,-0.0731,-0.0708,-0.0682,-0.067,-0.0642,-0.0651,-0.0638,-0.0676,-0.0676,-0.068,-0.0707,-0.0703,-0.0717,-0.074,-0.0739,-0.0713,-0.0689,-0.0633,-0.0607,-0.0722,-0.0721,-0.0721,0,-0.0792,-0.0764,-0.071,-0.0691,-0.0678,-0.0657,-0.0607,-0.0587,-0.0552,-0.0548,-0.0536,-0.0551,-0.0541,-0.0596,-0.061,-0.0619,-0.0658,-0.0683,-0.0684,-0.0664,-0.0713,-0.0634,-0.0596,-0.0663,-0.0715,-0.0715,-0.0716,0,-0.0742,-0.0695,-0.0652,-0.064,-0.0618,-0.0593,-0.0584,-0.0547,-0.0511,-0.0485,-0.0462,-0.0467,-0.047,-0.0512,-0.0562,-0.0591,-0.0581,-0.0638,-0.0651,-0.065,-0.0601,-0.0597,-0.0612,-0.0648,-0.0648,-0.0648,-0.0648,0,-0.0687,-0.0651,-0.0619,-0.0595,-0.0528,-0.0543,-0.0479,-0.0462,-0.0434,-0.0375,-0.0411,-0.0368,-0.0452,-0.0458,-0.0522,-0.0552,-0.0554,-0.0616,-0.0636,-0.0592,-0.0588,-0.0644,-0.069,-0.0647,-0.0647,-0.0647,-0.0647,0,-0.064,-0.0625,-0.0567,-0.0526,-0.0505,-0.0454,-0.0418,-0.0365,-0.0362,-0.0289,-0.0282,-0.0288,-0.0298,-0.0363,-0.0424,-0.0491,-0.0554,-0.055,-0.0482,-0.0494,-0.0584,-0.063,-0.0649,-0.0663,-0.0562,-0.0561,-0.0561,0,-0.0616,-0.058,-0.05,-0.0448,-0.0426,-0.0366,-0.0318,-0.0316,-0.027,-0.0223,-0.018,-0.0176,-0.0144,-0.0218,-0.033,-0.0415,-0.0501,-0.0442,-0.0492,-0.0551,-0.0619,-0.0672,-0.0687,-0.0422,-0.042,-0.0419,-0.0418,0,-0.0557,-0.0521,-0.0465,-0.0366,-0.0297,-0.0219,-0.0169,-0.0126,-0.0111,-0.0054,0.002,0.0048,-0.0029,-0.0075,-0.0211,-0.0292,-0.0466,-0.0418,-0.0496,-0.0506,-0.0545,-0.058,-0.0473,-0.0405,-0.0407,-0.0407,-0.0408,-0.0409,-0.05,-0.0434,-0.0355,-0.0262,-0.0178,-0.0073,-0.0004,0.0047,0.0135,0.0238,0.0211,0.0307,0.0168,-0.0005,-0.0142,-0.0345,-0.0394,-0.0412,-0.0461,-0.0508,-0.0522,-0.0377,-0.0329,-0.0329,-0.033,-0.033,-0.0331,0,-0.0412,-0.0347,-0.026,-0.0134,-0.0026,-0.0005,0.0107,0.0187,0.0314,0.0412,0.049,0.0533,0.0367,0.015,-0.0145,-0.0338,-0.0435,-0.0446,-0.0509,-0.0523,-0.0396,-0.0391,-0.0332,-0.0332,-0.0332,-0.0332,-0.0331,-0.0331,-0.0355,-0.0251,-0.0207,-0.0014,0.0071,0.0232,0.0311,0.0433,0.0525,0.0709,0.0817,0.0855,0.0736,0.0111,-0.0285,-0.0398,-0.0549,-0.0579,-0.0668,-0.059,-0.0592,-0.0593,-0.0599,-0.0585,-0.0585,-0.0756,-0.0758,-0.0759]}],[{"header":{"parameterUnit":"m.s-1","parameterCategory":2,"la1":30.2991,"la2":30.254,"lo1":-89.0895,"lo2":-89.0444,"dy":0.0017,"dx":0.0017,"nx":28,"ny":28,"refTime":"2023-07-22T03:00:00:Z","depth":"2","parameterNumber":2,"parameterNumberName":"U-component_of_CURRENTS"},"data":[0,0,0,0,0,0,0,0,0,0,0,0,0,0,0,0,0,0,0,0,0,0,0,0,0,0,0,0,0,0,0,0,0,0,0,0,0,0,0,0,0,0,0,0,0,0,0,0,0,0,0,0,0,0,0,0,0,0,0.0781,0.0781,0,0.0716,0.0715,0.0714,0.0786,0.0789,0.0793,0.0796,0.0955,0.0957,0.0958,0,0,0,0,0,0,0,0,0,0,0,0,0,0.07,0.0703,0.0781,0.0781,0.078,0.0717,0.0715,0.0714,0.0786,0.079,0.0793,0.0797,0.0955,0.0956,0.0958,0,0,0,0,0,0,0,0,0,0,0,0,0,0.0691,0.0703,0.0781,0.0813,0.0815,0.0717,0.0715,0.0713,0.0785,0.079,0.0794,0.0799,0.0954,0.0956,0.0958,0.0872,0,0,0.0964,0.0964,0,0,0,0,0,0,0,0,0.0692,0.0693,0.0808,0.081,0.0813,0.0769,0.0745,0.078,0.0783,0.079,0.0796,0.0801,0.0914,0.0919,0.0885,0.088,0.0886,0.0964,0.0965,0.0966,0.0966,0,0,0,0,0,0,0,0.0693,0.0695,0.075,0.0808,0.0811,0.0739,0.0745,0.0749,0.0825,0.079,0.0797,0.0797,0.0917,0.0883,0.089,0.0889,0.0964,0.0965,0.0967,0.0967,0.1057,0.1058,0,0,0,0,0,0,0.0721,0.0697,0.0752,0.0748,0.0769,0.0738,0.0744,0.0774,0.0821,0.0832,0.0793,0.08,0.0877,0.0888,0.0897,0.1043,0.0966,0.0967,0.0969,0.1055,0.1057,0.1058,0,0,0,0,0,0,0.0719,0.0727,0.0755,0.0723,0.0723,0.0737,0.0767,0.077,0.0774,0.0821,0.0837,0.08,0.0882,0.0894,0.106,0.1042,0.0968,0.097,0.1054,0.1056,0.1058,0.118,0,0,0,0,0,0,0.0718,0.0727,0.074,0.0727,0.0726,0.0777,0.0763,0.0766,0.0767,0.0778,0.0832,0.0849,0.0886,0.1059,0.1062,0.1043,0.0971,0.1052,0.1055,0.1057,0.1174,0.1186,0.1196,0,0,0,0,0,0.0715,0.0746,0.0742,0.0748,0.0751,0.078,0.0775,0.0792,0.0763,0.0802,0.0902,0.0849,0.1071,0.1066,0.1069,0.1048,0.1051,0.1054,0.1057,0.117,0.1184,0.1195,0,0,0,0,0,0,0.0714,0.0755,0.0752,0.0791,0.0814,0.0798,0.0817,0.0789,0.0867,0.0892,0.0923,0.0953,0.1057,0.1048,0.1039,0.1076,0.1023,0.1027,0.1107,0.1121,0.1131,0.1149,0.0973,0,0,0,0,0,0.0714,0.0707,0.0777,0.0764,0.083,0.0806,0.0804,0.0815,0.0876,0.0908,0.096,0.1004,0.1046,0.11,0.1134,0.1189,0.1189,0.1156,0.1167,0.1176,0.1192,0.1222,0.1237,0.1068,0.1068,0.1068,0,0,0.073,0.0693,0.0723,0.0754,0.0775,0.0843,0.0822,0.0853,0.0859,0.0915,0.0994,0.105,0.1071,0.1159,0.1193,0.1172,0.1229,0.118,0.1188,0.1199,0.1226,0.1243,0.1258,0.107,0.1069,0.1069,0,0,0.0722,0.0733,0.0784,0.0824,0.0854,0.0839,0.0862,0.0916,0.0936,0.1022,0.1047,0.1144,0.1197,0.1236,0.1245,0.132,0.1277,0.1287,0.1373,0.1402,0.1417,0.143,0.1478,0.1494,0.1302,0.1302,0.1302,0,0.0706,0.0757,0.0796,0.0854,0.0865,0.0854,0.0932,0.0933,0.1007,0.1059,0.1086,0.1187,0.1215,0.1286,0.135,0.1336,0.1376,0.133,0.142,0.1432,0.1443,0.1488,0.1504,0.1308,0.1307,0.1307,0.1306,0,0.0818,0.0827,0.0859,0.0902,0.0944,0.0971,0.1039,0.1103,0.1099,0.1102,0.1211,0.1283,0.1364,0.1344,0.1396,0.1463,0.1475,0.1425,0.1394,0.1468,0.151,0.1525,0.1317,0.1315,0.1313,0.1311,0,0,0.0843,0.0911,0.0924,0.0943,0.0958,0.1014,0.1074,0.1146,0.1206,0.1262,0.133,0.1413,0.1462,0.1478,0.1501,0.1545,0.1674,0.1562,0.156,0.1622,0.1792,0.1745,0.1756,0.1671,0.1673,0.1675,0.18,0,0.0884,0.0952,0.0977,0.1029,0.1108,0.1136,0.1186,0.1252,0.129,0.1379,0.1404,0.1476,0.1488,0.1565,0.1613,0.1646,0.1717,0.1647,0.1699,0.17,0.1659,0.1771,0.1564,0.1654,0.1814,0.1817,0.1819,0,0.1026,0.101,0.1098,0.11,0.1163,0.1202,0.1316,0.1351,0.1459,0.1524,0.1609,0.1618,0.1705,0.1681,0.1791,0.1768,0.1822,0.1831,0.1834,0.1756,0.168,0.1598,0.1674,0.1843,0.1841,0.1839,0.1837,0,0.103,0.1091,0.111,0.1133,0.1196,0.1279,0.1306,0.1432,0.1495,0.1617,0.1701,0.1757,0.1815,0.1862,0.1915,0.1888,0.2015,0.1943,0.1946,0.1943,0.1754,0.1729,0.204,0.204,0.204,0.2039,0.2039,0,0.1004,0.1045,0.115,0.1164,0.1257,0.1329,0.1424,0.1521,0.1637,0.1702,0.1776,0.1849,0.1879,0.194,0.1964,0.2018,0.2056,0.1999,0.1982,0.1792,0.177,0.1903,0.1886,0.2044,0.2043,0.2042,0.2041,0,0.1016,0.1032,0.1101,0.1205,0.1249,0.1351,0.1457,0.1542,0.1687,0.1781,0.1827,0.1956,0.2059,0.2081,0.215,0.209,0.2117,0.2134,0.1925,0.1881,0.2017,0.2004,0.2135,0.2135,0.2134,0.2134,0.2134,0,0.1002,0.1046,0.1165,0.1188,0.123,0.1359,0.1423,0.156,0.163,0.1829,0.1866,0.203,0.2106,0.22,0.2125,0.2143,0.2211,0.1963,0.1844,0.2062,0.2032,0.2019,0.2008,0.1654,0.165,0.1647,0.1644,0,0.0991,0.1067,0.1107,0.12,0.1262,0.133,0.1429,0.1497,0.1646,0.1756,0.1896,0.1981,0.2085,0.1992,0.2028,0.1998,0.1924,0.1895,0.2188,0.1656,0.1616,0.1584,0.1587,0.1614,0.1617,0.1619,0.1621,0.1622,0.1014,0.1039,0.1111,0.1191,0.1245,0.1299,0.1326,0.1429,0.1535,0.1646,0.1791,0.1834,0.1794,0.1731,0.1729,0.1716,0.1815,0.1691,0.1698,0.1709,0.1625,0.1586,0.1564,0.1567,0.1569,0.1571,0.1573,0,0.1007,0.1013,0.1082,0.1128,0.1169,0.1243,0.1319,0.1332,0.1401,0.1468,0.1572,0.1408,0.1388,0.1441,0.134,0.1332,0.1297,0.1327,0.1238,0.1266,0.1292,0.1185,0.1009,0.1008,0.1007,0.1006,0,0,0.0965,0.0992,0.1016,0.1045,0.1096,0.1127,0.1154,0.1184,0.1216,0.1193,0.1156,0.1224,0.1277,0.1048,0.1059,0.1035,0.115,0.1014,0.1449,0.1365,0.139,0.1471,0.1334,0,0,0,0,0]},{"header":{"parameterUnit":"m.s-1","parameterCategory":2,"la1":30.2991,"la2":30.254,"lo1":-89.0895,"lo2":-89.0444,"dy":0.0017,"dx":0.0017,"nx":28,"ny":28,"refTime":"2023-07-22T03:00:00:Z","depth":"2","parameterNumber":3,"parameterNumberName":"V-component_of_CURRENTS"},"data":[0,0,0,0,0,0,0,0,0,0,0,0,0,0,0,0,0,0,0,0,0,0,0,0,0,0,0,0,0,0,0,0,0,0,0,0,0,0,0,0,0,0,0,0,0,0,0,0,0,0,0,0,0,0,0,0,0,0,-0.0284,-0.0283,0,-0.0223,-0.0222,-0.0221,-0.0239,-0.0241,-0.0243,-0.0244,-0.0357,-0.0358,-0.036,0,0,0,0,0,0,0,0,0,0,0,0,0,-0.017,-0.0173,-0.0284,-0.0283,-0.0283,-0.0223,-0.0222,-0.0221,-0.0239,-0.0241,-0.0243,-0.0245,-0.0357,-0.0358,-0.036,0,0,0,0,0,0,0,0,0,0,0,0,0,-0.017,-0.0174,-0.0284,-0.0289,-0.029,-0.0224,-0.0222,-0.022,-0.0238,-0.0241,-0.0244,-0.0246,-0.0356,-0.0358,-0.036,-0.0318,0,0,-0.0366,-0.0367,0,0,0,0,0,0,0,0,-0.017,-0.0174,-0.0289,-0.0289,-0.0289,-0.0247,-0.0223,-0.0264,-0.0238,-0.0252,-0.0245,-0.0248,-0.0338,-0.0342,-0.0313,-0.0324,-0.0328,-0.0366,-0.0368,-0.0368,-0.0369,0,0,0,0,0,0,0,-0.0171,-0.0175,-0.0254,-0.0288,-0.0289,-0.0211,-0.0216,-0.0228,-0.0279,-0.0251,-0.0253,-0.0255,-0.0339,-0.0311,-0.0317,-0.033,-0.0366,-0.0368,-0.0369,-0.037,-0.0429,-0.043,0,0,0,0,0,0,-0.02,-0.0177,-0.0256,-0.0253,-0.0242,-0.0213,-0.0217,-0.0253,-0.0275,-0.0282,-0.0253,-0.0256,-0.0306,-0.0315,-0.0321,-0.0355,-0.0368,-0.037,-0.0371,-0.0429,-0.0429,-0.043,0,0,0,0,0,0,-0.0199,-0.0209,-0.0258,-0.0215,-0.0217,-0.0214,-0.0252,-0.025,-0.0252,-0.0276,-0.0285,-0.0261,-0.0309,-0.0319,-0.0423,-0.0357,-0.0371,-0.0373,-0.0428,-0.0429,-0.0429,-0.0371,0,0,0,0,0,0,-0.0196,-0.021,-0.0223,-0.0219,-0.0221,-0.025,-0.025,-0.0247,-0.025,-0.0254,-0.0285,-0.0296,-0.0312,-0.0421,-0.0426,-0.036,-0.0374,-0.0428,-0.0429,-0.0429,-0.0373,-0.037,-0.0367,0,0,0,0,0,-0.0193,-0.0221,-0.0224,-0.0233,-0.0249,-0.0251,-0.0244,-0.0244,-0.0248,-0.0253,-0.0324,-0.0297,-0.0425,-0.0426,-0.043,-0.0363,-0.0428,-0.0428,-0.0429,-0.0374,-0.037,-0.0367,0,0,0,0,0,0,-0.0171,-0.0225,-0.023,-0.0271,-0.0271,-0.0257,-0.0256,-0.025,-0.0293,-0.0307,-0.0343,-0.036,-0.0411,-0.0419,-0.0419,-0.0386,-0.0402,-0.0405,-0.0358,-0.0355,-0.0353,-0.0323,-0.0376,0,0,0,0,0,-0.0174,-0.0189,-0.0237,-0.024,-0.0275,-0.0261,-0.0255,-0.0251,-0.0291,-0.0307,-0.0341,-0.0374,-0.0403,-0.0418,-0.045,-0.0451,-0.0461,-0.0401,-0.0398,-0.0396,-0.0378,-0.0401,-0.0398,-0.0432,-0.0432,-0.0432,0,0,-0.0182,-0.0176,-0.0205,-0.023,-0.0237,-0.024,-0.0266,-0.0265,-0.0231,-0.0316,-0.0322,-0.0384,-0.0414,-0.0426,-0.0439,-0.0431,-0.039,-0.0397,-0.0394,-0.0377,-0.0402,-0.0398,-0.0395,-0.0433,-0.0433,-0.0433,0,0,-0.0161,-0.02,-0.0225,-0.0233,-0.0235,-0.0211,-0.0225,-0.0246,-0.0244,-0.0275,-0.0315,-0.0375,-0.0407,-0.0408,-0.0413,-0.0416,-0.0393,-0.0396,-0.0332,-0.0355,-0.0351,-0.0349,-0.0342,-0.034,-0.0371,-0.0371,-0.0371,0,-0.0146,-0.0166,-0.0222,-0.0227,-0.0205,-0.021,-0.0207,-0.0192,-0.0222,-0.0232,-0.0285,-0.0339,-0.0383,-0.0362,-0.0371,-0.0398,-0.0411,-0.0337,-0.0348,-0.0346,-0.0344,-0.0339,-0.0336,-0.0368,-0.0368,-0.0369,-0.0369,0,-0.0163,-0.0159,-0.017,-0.0161,-0.0159,-0.0136,-0.0153,-0.0166,-0.0167,-0.0146,-0.018,-0.0258,-0.0293,-0.0286,-0.0338,-0.0309,-0.0322,-0.0359,-0.0348,-0.0336,-0.0332,-0.0331,-0.0364,-0.0365,-0.0366,-0.0367,0,0,-0.0179,-0.0175,-0.018,-0.015,-0.0109,-0.0113,-0.0087,-0.0065,-0.0061,-0.008,-0.0064,-0.012,-0.0165,-0.0177,-0.0215,-0.0224,-0.0236,-0.028,-0.0283,-0.0258,-0.0268,-0.0229,-0.0224,-0.0281,-0.0281,-0.0281,-0.0265,0,-0.0147,-0.0123,-0.0116,-0.0057,-0.0063,-0.0053,-0.0028,-0.0013,-0.0009,-0.0009,-0.003,-0.0047,-0.0105,-0.0146,-0.0157,-0.0227,-0.0232,-0.0235,-0.0297,-0.0298,-0.0252,-0.0221,-0.0222,-0.0204,-0.0263,-0.0263,-0.0263,0,-0.0174,-0.0133,-0.0102,-0.0018,-0.0033,0.0,0.0022,0.0056,0.0062,0.0033,0.0031,0.0018,0.002,-0.0059,-0.011,-0.0113,-0.0188,-0.0234,-0.0235,-0.0214,-0.0255,-0.0232,-0.02,-0.0261,-0.0261,-0.0261,-0.0261,0,-0.0162,-0.0109,-0.0051,-0.0035,0.0014,0.0009,0.0048,0.0043,0.0059,0.0066,0.0055,0.0074,0.0051,-0.0007,-0.0091,-0.0117,-0.0147,-0.0198,-0.0215,-0.0212,-0.023,-0.0228,-0.0246,-0.0246,-0.0246,-0.0246,-0.0246,0,-0.0092,-0.0062,-0.0069,-0.0046,-0.0004,-0.0001,0.0039,0.0034,0.0038,0.0088,0.008,0.0104,0.0049,0.004,-0.0045,-0.0098,-0.0114,-0.0183,-0.0202,-0.0208,-0.0205,-0.0277,-0.0281,-0.0246,-0.0246,-0.0246,-0.0246,0,-0.0086,-0.0061,-0.0018,-0.0,0.0005,0.0012,0.0053,0.0062,0.0039,0.0095,0.0102,0.0119,0.011,0.0078,-0.0005,-0.0047,-0.0104,-0.0135,-0.0113,-0.0129,-0.0162,-0.0163,-0.0128,-0.0126,-0.0125,-0.0124,-0.0123,0,-0.0061,-0.0061,-0.0026,0.0008,0.0025,0.0035,0.0049,0.0051,0.0083,0.0117,0.0163,0.0168,0.022,0.0161,0.0066,-0.001,-0.007,-0.0066,-0.0115,-0.0125,-0.0148,-0.0151,-0.0154,-0.0117,-0.0116,-0.0115,-0.0115,0,-0.0032,-0.0048,-0.0004,0.0014,0.0049,0.0114,0.0145,0.0164,0.0187,0.0228,0.0307,0.0351,0.0293,0.0246,0.0131,0.0064,-0.0039,-0.0051,-0.0078,-0.0138,-0.0111,-0.0135,-0.0139,-0.0108,-0.0109,-0.0109,-0.011,-0.011,-0.0042,0.0003,0.002,0.0061,0.0113,0.0194,0.0254,0.0299,0.0374,0.0466,0.0468,0.0526,0.0399,0.0287,0.015,0.0002,0.0009,-0.0044,-0.0048,-0.0053,-0.0046,-0.0018,0.0006,0.0006,0.0006,0.0006,0.0006,0,-0.0025,0.0034,0.0067,0.0158,0.022,0.0225,0.0325,0.0398,0.0522,0.0591,0.0677,0.0582,0.0491,0.0317,0.0102,-0.0007,-0.0054,-0.0045,-0.0095,-0.0099,-0.0103,-0.0102,-0.0063,-0.0064,-0.0064,-0.0065,0,0,0.0005,0.0069,0.0108,0.0236,0.028,0.0389,0.0458,0.0578,0.0656,0.0758,0.0776,0.079,0.0559,0.0388,0.0203,0.0067,0.0016,0.0046,0.0121,0.0082,0.0079,-0.0076,-0.0073,0,0,0,0,0]}],[{"header":{"parameterUnit":"m.s-1","parameterCategory":2,"la1":30.2991,"la2":30.254,"lo1":-89.0895,"lo2":-89.0444,"dy":0.0017,"dx":0.0017,"nx":28,"ny":28,"refTime":"2023-07-22T03:00:00:Z","depth":"4","parameterNumber":2,"parameterNumberName":"U-component_of_CURRENTS"},"data":[0,0,0,0,0,0,0,0,0,0,0,0,0,0,0,0,0,0,0,0,0,0,0,0,0,0,0,0,0,0,0,0,0,0,0,0,0,0,0,0,0,0,0,0,0,0,0,0,0,0,0,0,0,0,0,0,0,0,-0.0448,-0.0449,0,-0.0536,-0.0538,-0.0539,-0.0638,-0.0639,-0.064,-0.0641,-0.0799,-0.0802,-0.0805,0,0,0,0,0,0,0,0,0,0,0,0,0,-0.0457,-0.0456,-0.0448,-0.0449,-0.045,-0.0536,-0.0538,-0.0539,-0.0638,-0.0639,-0.064,-0.0642,-0.0798,-0.0802,-0.0805,0,0,0,0,0,0,0,0,0,0,0,0,0,-0.0493,-0.0456,-0.0448,-0.0507,-0.0512,-0.0536,-0.0538,-0.054,-0.0637,-0.0639,-0.0641,-0.0642,-0.0797,-0.0801,-0.0806,-0.0802,0,0,-0.082,-0.0822,0,0,0,0,0,0,0,0,-0.0491,-0.0493,-0.0497,-0.0503,-0.0509,-0.0575,-0.0599,-0.0629,-0.0637,-0.0594,-0.0641,-0.0643,-0.0727,-0.0737,-0.0754,-0.0809,-0.0816,-0.0821,-0.0824,-0.0826,-0.0827,0,0,0,0,0,0,0,-0.0488,-0.049,-0.0487,-0.0498,-0.0505,-0.056,-0.0566,-0.0605,-0.0654,-0.0598,-0.0604,-0.0607,-0.0731,-0.0749,-0.0759,-0.0818,-0.0821,-0.0825,-0.0828,-0.083,-0.094,-0.0941,0,0,0,0,0,0,-0.0463,-0.0487,-0.0484,-0.0489,-0.05,-0.0557,-0.0565,-0.0555,-0.0652,-0.0667,-0.0606,-0.0612,-0.0741,-0.0753,-0.0765,-0.091,-0.0826,-0.083,-0.0833,-0.094,-0.094,-0.0941,0,0,0,0,0,0,-0.0462,-0.0461,-0.048,-0.0489,-0.0494,-0.0554,-0.0543,-0.0556,-0.0624,-0.0657,-0.0674,-0.0666,-0.0742,-0.0758,-0.0824,-0.0911,-0.0832,-0.0837,-0.094,-0.094,-0.0941,-0.1107,0,0,0,0,0,0,-0.0462,-0.046,-0.046,-0.0486,-0.0493,-0.051,-0.0541,-0.0556,-0.0618,-0.0628,-0.0713,-0.0727,-0.0745,-0.0817,-0.0829,-0.0916,-0.084,-0.094,-0.094,-0.0941,-0.1102,-0.1113,-0.1123,0,0,0,0,0,-0.0462,-0.0456,-0.0459,-0.0459,-0.0484,-0.051,-0.0519,-0.0571,-0.062,-0.0642,-0.07,-0.0727,-0.0826,-0.0821,-0.0835,-0.0927,-0.094,-0.094,-0.094,-0.1097,-0.1111,-0.1123,0,0,0,0,0,0,-0.0472,-0.0465,-0.047,-0.0465,-0.0489,-0.0525,-0.0556,-0.0597,-0.0662,-0.0696,-0.0737,-0.0753,-0.0838,-0.0834,-0.0827,-0.0944,-0.0884,-0.0887,-0.0998,-0.1011,-0.1022,-0.0985,-0.0844,0,0,0,0,0,-0.0464,-0.0455,-0.0465,-0.0466,-0.048,-0.0529,-0.0555,-0.0595,-0.0645,-0.068,-0.0754,-0.0805,-0.0839,-0.0888,-0.091,-0.0989,-0.0938,-0.1044,-0.1055,-0.1065,-0.1035,-0.1053,-0.1065,-0.0941,-0.0941,-0.0941,0,0,-0.0475,-0.0464,-0.0466,-0.0467,-0.0498,-0.0522,-0.0553,-0.0608,-0.0651,-0.0685,-0.0803,-0.0849,-0.0857,-0.0941,-0.098,-0.0966,-0.1065,-0.1065,-0.1075,-0.1038,-0.1055,-0.1067,-0.1079,-0.0942,-0.0941,-0.0941,0,0,-0.0484,-0.0479,-0.048,-0.0494,-0.0529,-0.0553,-0.0577,-0.0654,-0.0713,-0.0803,-0.0836,-0.0912,-0.1007,-0.1026,-0.104,-0.1108,-0.1108,-0.1151,-0.1214,-0.1235,-0.1246,-0.1255,-0.1188,-0.119,-0.1178,-0.1178,-0.1178,0,-0.0497,-0.0488,-0.0491,-0.0498,-0.0528,-0.057,-0.0609,-0.065,-0.0753,-0.0818,-0.0854,-0.0997,-0.1026,-0.1093,-0.1132,-0.1139,-0.1132,-0.1187,-0.1255,-0.1263,-0.1269,-0.1198,-0.1198,-0.1186,-0.1185,-0.1184,-0.1184,0,-0.0505,-0.0509,-0.0519,-0.0531,-0.0568,-0.0605,-0.0655,-0.0739,-0.0837,-0.0894,-0.1022,-0.1066,-0.1145,-0.1191,-0.1197,-0.1279,-0.1248,-0.1261,-0.1238,-0.1293,-0.1212,-0.1209,-0.1198,-0.1195,-0.1192,-0.119,0,0,-0.0495,-0.0519,-0.0521,-0.0543,-0.0596,-0.0627,-0.0714,-0.0799,-0.0873,-0.0996,-0.1095,-0.1186,-0.1245,-0.1255,-0.1296,-0.1338,-0.1388,-0.1354,-0.1351,-0.131,-0.1403,-0.1187,-0.1161,-0.1468,-0.1469,-0.147,-0.1322,0,-0.0503,-0.0513,-0.0544,-0.0595,-0.0614,-0.0697,-0.0769,-0.0863,-0.0957,-0.1059,-0.1131,-0.12,-0.1253,-0.1309,-0.1375,-0.1372,-0.1393,-0.1422,-0.133,-0.1323,-0.1148,-0.1155,-0.1473,-0.1319,-0.1318,-0.1318,-0.1317,0,-0.0497,-0.05,-0.0556,-0.0629,-0.0656,-0.0719,-0.0863,-0.0925,-0.1046,-0.1121,-0.1224,-0.1257,-0.1315,-0.1346,-0.1381,-0.1423,-0.1418,-0.1413,-0.1409,-0.1137,-0.1102,-0.125,-0.1311,-0.1312,-0.1312,-0.1313,-0.1313,0,-0.0472,-0.0512,-0.0565,-0.0586,-0.0681,-0.0777,-0.0846,-0.098,-0.1025,-0.1133,-0.1159,-0.1264,-0.126,-0.1327,-0.1303,-0.1375,-0.13,-0.1379,-0.1158,-0.114,-0.1312,-0.1303,-0.1381,-0.1381,-0.1382,-0.1382,-0.1383,0,-0.0449,-0.0483,-0.0566,-0.0594,-0.0681,-0.0774,-0.0883,-0.097,-0.106,-0.1051,-0.1173,-0.1131,-0.1268,-0.1237,-0.1279,-0.1157,-0.1265,-0.1124,-0.1091,-0.1377,-0.1378,-0.1307,-0.1301,-0.1376,-0.1378,-0.1379,-0.138,0,-0.0423,-0.0462,-0.0525,-0.0641,-0.0675,-0.0754,-0.0853,-0.0895,-0.0988,-0.0969,-0.0973,-0.1019,-0.0945,-0.1006,-0.1023,-0.1031,-0.0985,-0.0912,-0.1117,-0.1104,-0.0825,-0.0829,-0.0677,-0.0668,-0.0661,-0.0654,-0.0649,0,-0.0407,-0.0438,-0.0549,-0.0567,-0.0634,-0.0722,-0.0758,-0.086,-0.0856,-0.0836,-0.0785,-0.0723,-0.0725,-0.0573,-0.0675,-0.0669,-0.0687,-0.0663,-0.0846,-0.0771,-0.0756,-0.0771,-0.0784,-0.0637,-0.0635,-0.0633,-0.0631,0,-0.0394,-0.0464,-0.0518,-0.0545,-0.0592,-0.0598,-0.0641,-0.0615,-0.0655,-0.0705,-0.0549,-0.0498,-0.0381,-0.0407,-0.0369,-0.0396,-0.0704,-0.0588,-0.0607,-0.0779,-0.0722,-0.0717,-0.0739,-0.0606,-0.0609,-0.0612,-0.0613,0,-0.0408,-0.044,-0.051,-0.0536,-0.0532,-0.0479,-0.0509,-0.0453,-0.0455,-0.043,-0.0331,-0.0288,-0.0296,-0.0247,-0.0217,-0.0208,-0.0262,-0.0333,-0.0368,-0.0397,-0.0383,-0.0275,0.0043,0,0,0,0,0,-0.0412,-0.0447,-0.0465,-0.0471,-0.0438,-0.0444,-0.0419,-0.0435,-0.0423,-0.0273,-0.0314,-0.0185,-0.0101,-0.01,-0.0044,-0.0124,-0.0291,-0.0061,-0.0399,-0.0462,-0.0492,-0.0507,0,0,0,0,0,0,-0.0414,-0.0463,-0.0475,-0.0399,-0.0367,-0.0322,-0.0304,-0.0289,-0.0223,-0.0208,-0.017,-0.0161,-0.011,-0.0123,-0.0038,-0.0038,-0.024,-0.0051,-0.0048,-0.0445,-0.0473,-0.0497,-0.0522,0,0,0,0,0]},{"header":{"parameterUnit":"m.s-1","parameterCategory":2,"la1":30.2991,"la2":30.254,"lo1":-89.0895,"lo2":-89.0444,"dy":0.0017,"dx":0.0017,"nx":28,"ny":28,"refTime":"2023-07-22T03:00:00:Z","depth":"4","parameterNumber":3,"parameterNumberName":"V-component_of_CURRENTS"},"data":[0,0,0,0,0,0,0,0,0,0,0,0,0,0,0,0,0,0,0,0,0,0,0,0,0,0,0,0,0,0,0,0,0,0,0,0,0,0,0,0,0,0,0,0,0,0,0,0,0,0,0,0,0,0,0,0,0,0,0.0198,0.0198,0,0.0155,0.0154,0.0154,0.0175,0.0176,0.0178,0.0179,0.0182,0.0181,0.018,0,0,0,0,0,0,0,0,0,0,0,0,0,0.0266,0.0264,0.0198,0.0198,0.0198,0.0155,0.0154,0.0153,0.0175,0.0176,0.0178,0.018,0.0183,0.0181,0.018,0,0,0,0,0,0,0,0,0,0,0,0,0,0.0228,0.0264,0.0198,0.0205,0.0206,0.0155,0.0154,0.0153,0.0174,0.0177,0.0179,0.0181,0.0183,0.0182,0.018,0.0127,0,0,0.0174,0.0173,0,0,0,0,0,0,0,0,0.023,0.0225,0.0205,0.0205,0.0205,0.0175,0.0179,0.0148,0.0174,0.0183,0.0179,0.0182,0.0185,0.0183,0.0165,0.0127,0.0127,0.0174,0.0173,0.0172,0.0172,0,0,0,0,0,0,0,0.0233,0.0227,0.0178,0.0204,0.0205,0.0199,0.0196,0.0173,0.0171,0.0183,0.0185,0.0184,0.0185,0.0167,0.0166,0.0127,0.0174,0.0172,0.0171,0.0171,0.0063,0.0061,0,0,0,0,0,0,0.0243,0.0229,0.018,0.0177,0.0226,0.0197,0.0193,0.018,0.0171,0.0172,0.0182,0.0185,0.0169,0.0168,0.0166,0.0167,0.0172,0.017,0.0169,0.0065,0.0063,0.0061,0,0,0,0,0,0,0.0244,0.0238,0.0181,0.0206,0.0199,0.0194,0.0179,0.0178,0.0185,0.017,0.0172,0.0194,0.0171,0.0169,0.0152,0.0165,0.017,0.0168,0.0067,0.0064,0.0062,0.0128,0,0,0,0,0,0,0.0246,0.0239,0.0232,0.0206,0.0198,0.016,0.0177,0.0176,0.0182,0.0186,0.018,0.0181,0.0172,0.0155,0.015,0.0163,0.0167,0.0069,0.0066,0.0062,0.0128,0.0128,0.0128,0,0,0,0,0,0.0248,0.0234,0.0231,0.0226,0.0188,0.016,0.0154,0.0157,0.018,0.0173,0.017,0.0182,0.013,0.0152,0.0147,0.016,0.0071,0.0067,0.0063,0.0128,0.0128,0.0128,0,0,0,0,0,0,0.0259,0.0234,0.0231,0.0209,0.019,0.0165,0.016,0.0165,0.0154,0.0165,0.0163,0.0162,0.0144,0.0128,0.0152,0.011,0.01,0.0095,0.0152,0.0151,0.0151,0.0152,0.0165,0,0,0,0,0,0.0256,0.0238,0.0215,0.0197,0.0192,0.0179,0.0171,0.017,0.0157,0.0157,0.0155,0.014,0.0115,0.012,0.0083,0.0071,0.0068,0.0069,0.0069,0.0069,0.006,0.0083,0.0086,0.0048,0.0048,0.0048,0,0,0.0257,0.0239,0.0231,0.0198,0.0187,0.0149,0.018,0.0167,0.0138,0.0156,0.0131,0.0134,0.0103,0.0083,0.0076,0.0085,0.0073,0.0064,0.0066,0.0056,0.0079,0.0084,0.0088,0.0045,0.0045,0.0046,0,0,0.0239,0.0233,0.021,0.0184,0.0163,0.0145,0.0148,0.0131,0.0133,0.0107,0.0109,0.0114,0.0086,0.0068,0.0055,0.0024,0.0059,0.0031,0.0057,0.0081,0.0086,0.009,0.0087,0.009,0.005,0.005,0.005,0,0.0243,0.0199,0.02,0.0159,0.0134,0.0144,0.0104,0.0089,0.007,0.0074,0.0102,0.007,0.0063,0.0036,0.0047,0.0027,0.0056,0.0076,0.0088,0.0091,0.0095,0.009,0.0094,0.0053,0.0052,0.0052,0.0052,0,0.0193,0.0157,0.0144,0.0088,0.0062,0.0033,0.0009,0.0002,0.0022,0.0021,0.002,0.0021,0.0022,0.0022,0.0041,0.0059,0.0076,0.0081,0.0107,0.0104,0.0097,0.01,0.0056,0.0055,0.0055,0.0054,0,0,0.0196,0.0125,0.0117,0.008,0.0023,-0.0004,-0.0047,-0.0074,-0.0079,-0.0063,-0.0061,-0.0062,0.0003,-0.0011,0.0021,0.0058,0.0121,0.0117,0.0117,0.0145,0.0189,0.011,0.0105,0.0177,0.0178,0.0178,0.0175,0,0.0157,0.0078,0.0047,-0.0035,-0.0077,-0.0095,-0.0135,-0.0155,-0.0142,-0.0136,-0.01,-0.0082,-0.003,0.0021,0.0061,0.0099,0.0133,0.0121,0.0157,0.0156,0.0115,0.0106,0.018,0.0177,0.0177,0.0178,0.0178,0,0.0108,0.0061,-0.001,-0.0092,-0.0107,-0.0143,-0.0182,-0.0211,-0.0204,-0.0175,-0.0129,-0.0093,-0.0039,0.0015,0.0085,0.0102,0.0158,0.0182,0.0183,0.0086,0.0082,0.0174,0.0182,0.0182,0.0182,0.0181,0.0181,0,0.0103,0.0012,-0.0037,-0.007,-0.015,-0.016,-0.0179,-0.0195,-0.0196,-0.0156,-0.0132,-0.0087,-0.0037,0.0034,0.0096,0.0135,0.0154,0.0194,0.0149,0.0143,0.0192,0.0187,0.0235,0.0235,0.0235,0.0235,0.0235,0,0.0055,0.0008,-0.0027,-0.0061,-0.0098,-0.0141,-0.0155,-0.0163,-0.0154,-0.0157,-0.0104,-0.0105,-0.0008,0.0007,0.0078,0.01,0.0138,0.0138,0.0137,0.0214,0.0212,0.0194,0.0189,0.0234,0.0234,0.0234,0.0235,0,0.0042,0.001,-0.0042,-0.0092,-0.0099,-0.0105,-0.0119,-0.0132,-0.0109,-0.011,-0.008,-0.008,-0.0054,-0.0026,0.0043,0.0059,0.0087,0.0082,0.0122,0.0125,0.0073,0.0071,0.0054,0.0051,0.0049,0.0047,0.0045,0,0.0017,-0.0004,-0.0032,-0.0031,-0.0041,-0.0049,-0.0063,-0.0078,-0.0093,-0.0115,-0.0126,-0.0114,-0.0112,-0.0096,-0.0062,-0.0007,0.001,0.0014,0.0086,0.0053,0.0055,0.0057,0.0058,0.0041,0.0041,0.004,0.004,0,-0.0015,0.0005,-0.0025,0.0006,0.0002,-0.0047,-0.0061,-0.0067,-0.0103,-0.0099,-0.0135,-0.0134,-0.0154,-0.0127,-0.0111,-0.0064,0.0009,-0.0009,-0.0002,0.0066,0.0038,0.0042,0.0046,0.0031,0.0033,0.0033,0.0034,0,-0.0012,-0.0015,0.0004,0.0035,0.0037,-0.0007,-0.0052,-0.0087,-0.0107,-0.0131,-0.0161,-0.0163,-0.0169,-0.0163,-0.0152,-0.0124,-0.0081,-0.0045,-0.0034,-0.0025,-0.0053,-0.01,-0.0158,0,0,0,0,0,-0.0001,0.0017,0.0033,0.0031,0.0045,0.005,-0.0032,-0.0088,-0.0133,-0.0148,-0.0141,-0.0157,-0.0155,-0.0175,-0.015,-0.0186,-0.0085,-0.0161,-0.0038,-0.0014,-0.0005,-0.0031,0,0,0,0,0,0,-0.0008,0.0019,0.0039,0.0075,0.0097,0.0052,0.0015,-0.0063,-0.0082,-0.0107,-0.0103,-0.0124,-0.0119,-0.012,-0.0122,-0.0127,-0.0048,-0.0163,-0.0164,-0.0019,-0.0011,-0.0003,-0.0027,0,0,0,0,0]}]]